Home   Weather   Hürth   Past weeks

Flag for Germany Past Weather in Hürth, North Rhine-Westphalia, Germany — Yesterday and Last 2 Weeks

Now
59 °F

Passing clouds.


Feels Like: 59 °F
Forecast: 52 / 70 °F
Wind: 5 mph from West

Location: Noervenich

Current Time: Sep 27, 2016 at 10:42:54 PM

Latest Report: Sep 27, 2016 at 9:20 PM


Visibility: N/A

Pressure: 30.30 "Hg

Humidity: 72%

Dew Point: 50 °F

Location of HürthLocation

Past Weather in Hürth — Graph

°F

Hürth Temperature Yesterday

Maximum temperature yesterday: 68 °F (at 3:20 PM)
Minimum temperature yesterday: 50 °F (at 7:20 AM)
Average temperature yesterday: 59 °F

High & Low Weather Summary for the Past Weeks

 TemperatureHumidityPressure
High90 °F (Sep 13, 1:20 PM)100% (Sep 18, 5:20 AM)30.33 "Hg (Sep 18, 5:20 AM)
Low46 °F (Sep 22, 2:20 AM)27% (Sep 14, 4:20 PM)29.80 "Hg (Sep 15, 2:20 PM)
Average63 °F70%30.07 "Hg
* Reported Sep 12 9:20 PM — Sep 27 9:20 PM, Hürth, Weather by CustomWeather, © 2016

Note: Actual official high and low records may vary slightly from our data, if they occured in-between our weather recording intervals... More about our weather records

Advertising

Hürth Weather History for the Previous 24 Hours

Scroll right to see more
 ConditionsComfort  
Time TempWeatherWind HumidityBarometerVisibility
9:20 PM
Tue, Sep 27
59 °FPassing clouds.5 mph72%30.30 "HgN/A
8:20 PM61 °FPassing clouds.1 mph68%30.30 "HgN/A
7:20 PM64 °FPassing clouds.1 mph64%30.30 "HgN/A
6:20 PM70 °FPassing clouds.5 mph53%30.27 "HgN/A
5:20 PM72 °FPassing clouds.3 mph47%30.27 "HgN/A
5:00 PM72 °FPassing clouds.3 mph47%30.27 "HgN/A
4:20 PM72 °FPassing clouds.5 mph47%30.27 "HgN/A
3:20 PM72 °FPassing clouds.6 mph47%30.30 "HgN/A
2:20 PM70 °FPassing clouds.5 mph46%30.30 "HgN/A
1:20 PM68 °FMild.3 mph53%30.30 "HgN/A
12:20 PM64 °FMild.2 mph60%30.33 "HgN/A
11:20 AM63 °FPassing clouds.2 mph64%30.33 "HgN/A
10:20 AM59 °FPassing clouds.3 mph77%30.30 "HgN/A
9:20 AM54 °FPassing clouds.6 mph88%30.30 "HgN/A
8:20 AM48 °FPassing clouds.2 mph87%30.30 "HgN/A
7:20 AM48 °FPassing clouds.6 mph94%30.27 "HgN/A
6:20 AM52 °FPassing clouds.1 mph88%30.27 "HgN/A
5:20 AM52 °FPassing clouds.5 mph88%30.27 "HgN/A
4:20 AM54 °FPassing clouds.6 mph82%30.27 "HgN/A
3:20 AM54 °FPassing clouds.6 mph82%30.27 "HgN/A
2:20 AM55 °FPartly cloudy.6 mph77%30.24 "HgN/A
1:20 AM55 °FPartly cloudy.5 mph77%30.24 "HgN/A
12:20 AM55 °FPartly cloudy.6 mph77%30.24 "HgN/A
11:20 PM
Mon, Sep 26
55 °FPassing clouds.6 mph72%30.24 "HgN/A
10:20 PM55 °FPassing clouds.2 mph72%30.24 "HgN/A
Weather by CustomWeather, © 2016

See weather overviewHow to use our weather pages